Location: Dentlein
(49.1477°N, 10.4231°E)
Time: 02:22:54
(UTC+00:00)

MOZ.5/SAFIR/RUBIN 5/SL-8 - Pass Details

Date: 23 May 2024
Orbit: 671 x 700 km, 98.3° (Epoch: 13 June)

Event Time Altitude Azimuth Distance (km) Brightness Sun altitude
Exits shadow 01:18:25 24° 204° (SSW) 1,414 4.8 -15.0°
Maximum altitude 01:20:48 43° 261° (W) 977 4.3 -14.8°
Drops below altitude 10° 01:25:19 10° 334° (NNW) 2,159 6.8 -14.4°
Sets 01:27:40 0° 341° (NNW) 3,076 7.7 -14.2°
